Year,Month,Day,Hour,Minute,Value (Times are PST for insolation in W/m^2)
2005,07,12,00,00,0.00
2005,07,12,00,01,0.00
2005,07,12,00,02,0.00
2005,07,12,00,03,0.00
2005,07,12,00,04,0.00
2005,07,12,00,05,0.00
2005,07,12,00,06,0.00
2005,07,12,00,07,0.00
2005,07,12,00,08,0.00
2005,07,12,00,09,0.00
2005,07,12,00,10,0.00
2005,07,12,00,11,0.00
2005,07,12,00,12,0.00
2005,07,12,00,13,0.00
2005,07,12,00,14,0.00
2005,07,12,00,15,0.00
2005,07,12,00,16,0.00
2005,07,12,00,17,0.00
2005,07,12,00,18,0.00
2005,07,12,00,19,0.00
2005,07,12,00,20,0.00
2005,07,12,00,21,0.00
2005,07,12,00,22,0.00
2005,07,12,00,23,0.00
2005,07,12,00,24,0.00
2005,07,12,00,25,0.00
2005,07,12,00,26,0.00
2005,07,12,00,27,0.00
2005,07,12,00,28,0.00
2005,07,12,00,29,0.00
2005,07,12,00,30,0.00
2005,07,12,00,31,0.00
2005,07,12,00,32,0.00
2005,07,12,00,33,0.00
2005,07,12,00,34,0.00
2005,07,12,00,35,0.00
2005,07,12,00,36,0.00
2005,07,12,00,37,0.00
2005,07,12,00,38,0.00
2005,07,12,00,39,0.00
2005,07,12,00,40,0.00
2005,07,12,00,41,0.00
2005,07,12,00,42,0.00
2005,07,12,00,43,0.00
2005,07,12,00,44,0.00
2005,07,12,00,45,0.00
2005,07,12,00,46,0.00
2005,07,12,00,47,0.00
2005,07,12,00,48,0.00
2005,07,12,00,49,0.00
2005,07,12,00,50,0.00
2005,07,12,00,51,0.00
2005,07,12,00,52,0.00
2005,07,12,00,53,0.00
2005,07,12,00,54,0.00
2005,07,12,00,55,0.00
2005,07,12,00,56,0.00
2005,07,12,00,57,0.00
2005,07,12,00,58,0.00
2005,07,12,00,59,0.00
2005,07,12,01,00,0.00
2005,07,12,01,01,0.00
2005,07,12,01,02,0.00
2005,07,12,01,03,0.00
2005,07,12,01,04,0.00
2005,07,12,01,05,0.00
2005,07,12,01,06,0.00
2005,07,12,01,07,0.00
2005,07,12,01,08,0.00
2005,07,12,01,09,0.00
2005,07,12,01,10,0.00
2005,07,12,01,11,0.00
2005,07,12,01,12,0.00
2005,07,12,01,13,0.00
2005,07,12,01,14,0.00
2005,07,12,01,15,0.00
2005,07,12,01,16,0.00
2005,07,12,01,17,0.00
2005,07,12,01,18,0.00
2005,07,12,01,19,0.00
2005,07,12,01,20,0.00
2005,07,12,01,21,0.00
2005,07,12,01,22,0.00
2005,07,12,01,23,0.00
2005,07,12,01,24,0.00
2005,07,12,01,25,0.00
2005,07,12,01,26,0.00
2005,07,12,01,27,0.00
2005,07,12,01,28,0.00
2005,07,12,01,29,0.00
2005,07,12,01,30,0.00
2005,07,12,01,31,0.00
2005,07,12,01,32,0.00
2005,07,12,01,33,0.00
2005,07,12,01,34,0.00
2005,07,12,01,35,0.00
2005,07,12,01,36,0.00
2005,07,12,01,37,0.00
2005,07,12,01,38,0.00
2005,07,12,01,39,0.00
2005,07,12,01,40,0.00
2005,07,12,01,41,0.00
2005,07,12,01,42,0.00
2005,07,12,01,43,0.00
2005,07,12,01,44,0.00
2005,07,12,01,45,0.00
2005,07,12,01,46,0.00
2005,07,12,01,47,0.00
2005,07,12,01,48,0.00
2005,07,12,01,49,0.00
2005,07,12,01,50,0.00
2005,07,12,01,51,0.00
2005,07,12,01,52,0.00
2005,07,12,01,53,0.00
2005,07,12,01,54,0.00
2005,07,12,01,55,0.00
2005,07,12,01,56,0.00
2005,07,12,01,57,0.00
2005,07,12,01,58,0.00
2005,07,12,01,59,0.00
2005,07,12,02,00,0.00
2005,07,12,02,01,0.00
2005,07,12,02,02,0.00
2005,07,12,02,03,0.00
2005,07,12,02,04,0.00
2005,07,12,02,05,0.00
2005,07,12,02,06,0.00
2005,07,12,02,07,0.00
2005,07,12,02,08,0.00
2005,07,12,02,09,0.00
2005,07,12,02,10,0.00
2005,07,12,02,11,0.00
2005,07,12,02,12,0.00
2005,07,12,02,13,0.00
2005,07,12,02,14,0.00
2005,07,12,02,15,0.00
2005,07,12,02,16,0.00
2005,07,12,02,17,0.00
2005,07,12,02,18,0.00
2005,07,12,02,19,0.00
2005,07,12,02,20,0.00
2005,07,12,02,21,0.00
2005,07,12,02,22,0.00
2005,07,12,02,23,0.00
2005,07,12,02,24,0.00
2005,07,12,02,25,0.00
2005,07,12,02,26,0.00
2005,07,12,02,27,0.00
2005,07,12,02,28,0.00
2005,07,12,02,29,0.00
2005,07,12,02,30,0.00
2005,07,12,02,31,0.00
2005,07,12,02,32,0.00
2005,07,12,02,33,0.00
2005,07,12,02,34,0.00
2005,07,12,02,35,0.00
2005,07,12,02,36,0.00
2005,07,12,02,37,0.00
2005,07,12,02,38,0.00
2005,07,12,02,39,0.00
2005,07,12,02,40,0.00
2005,07,12,02,41,0.00
2005,07,12,02,42,0.00
2005,07,12,02,43,0.00
2005,07,12,02,44,0.00
2005,07,12,02,45,0.00
2005,07,12,02,46,0.00
2005,07,12,02,47,0.00
2005,07,12,02,48,0.00
2005,07,12,02,49,0.00
2005,07,12,02,50,0.00
2005,07,12,02,51,0.00
2005,07,12,02,52,0.00
2005,07,12,02,53,0.00
2005,07,12,02,54,0.00
2005,07,12,02,55,0.00
2005,07,12,02,56,0.00
2005,07,12,02,57,0.00
2005,07,12,02,58,0.00
2005,07,12,02,59,0.00
2005,07,12,03,00,0.00
2005,07,12,03,01,0.00
2005,07,12,03,02,0.00
2005,07,12,03,03,0.00
2005,07,12,03,04,0.00
2005,07,12,03,05,0.00
2005,07,12,03,06,0.00
2005,07,12,03,07,0.00
2005,07,12,03,08,0.00
2005,07,12,03,09,0.00
2005,07,12,03,10,0.00
2005,07,12,03,11,0.00
2005,07,12,03,12,0.00
2005,07,12,03,13,0.00
2005,07,12,03,14,0.00
2005,07,12,03,15,0.00
2005,07,12,03,16,0.00
2005,07,12,03,17,0.00
2005,07,12,03,18,0.00
2005,07,12,03,19,0.00
2005,07,12,03,20,0.00
2005,07,12,03,21,0.00
2005,07,12,03,22,0.00
2005,07,12,03,23,0.00
2005,07,12,03,24,0.00
2005,07,12,03,25,0.00
2005,07,12,03,26,0.00
2005,07,12,03,27,0.00
2005,07,12,03,28,0.00
2005,07,12,03,29,0.00
2005,07,12,03,30,0.00
2005,07,12,03,31,0.00
2005,07,12,03,32,0.00
2005,07,12,03,33,0.00
2005,07,12,03,34,0.00
2005,07,12,03,35,0.00
2005,07,12,03,36,0.00
2005,07,12,03,37,0.00
2005,07,12,03,38,0.00
2005,07,12,03,39,0.00
2005,07,12,03,40,0.00
2005,07,12,03,41,0.00
2005,07,12,03,42,0.00
2005,07,12,03,43,0.00
2005,07,12,03,44,0.00
2005,07,12,03,45,0.00
2005,07,12,03,46,0.00
2005,07,12,03,47,0.00
2005,07,12,03,48,0.00
2005,07,12,03,49,0.00
2005,07,12,03,50,0.00
2005,07,12,03,51,0.00
2005,07,12,03,52,0.00
2005,07,12,03,53,0.00
2005,07,12,03,54,0.00
2005,07,12,03,55,0.00
2005,07,12,03,56,0.00
2005,07,12,03,57,0.00
2005,07,12,03,58,0.00
2005,07,12,03,59,0.00
2005,07,12,04,00,0.00
2005,07,12,04,01,0.00
2005,07,12,04,02,0.00
2005,07,12,04,03,0.00
2005,07,12,04,04,0.00
2005,07,12,04,05,0.00
2005,07,12,04,06,0.00
2005,07,12,04,07,0.00
2005,07,12,04,08,0.00
2005,07,12,04,09,0.00
2005,07,12,04,10,0.00
2005,07,12,04,11,0.00
2005,07,12,04,12,0.00
2005,07,12,04,13,0.00
2005,07,12,04,14,0.00
2005,07,12,04,15,0.00
2005,07,12,04,16,0.00
2005,07,12,04,17,0.00
2005,07,12,04,18,0.00
2005,07,12,04,19,0.00
2005,07,12,04,20,0.00
2005,07,12,04,21,0.00
2005,07,12,04,22,0.00
2005,07,12,04,23,0.00
2005,07,12,04,24,0.00
2005,07,12,04,25,0.00
2005,07,12,04,26,0.00
2005,07,12,04,27,0.00
2005,07,12,04,28,0.00
2005,07,12,04,29,0.00
2005,07,12,04,30,0.00
2005,07,12,04,31,0.00
2005,07,12,04,32,0.00
2005,07,12,04,33,0.00
2005,07,12,04,34,0.00
2005,07,12,04,35,0.00
2005,07,12,04,36,0.00
2005,07,12,04,37,0.00
2005,07,12,04,38,0.00
2005,07,12,04,39,0.00
2005,07,12,04,40,0.00
2005,07,12,04,41,0.00
2005,07,12,04,42,0.00
2005,07,12,04,43,0.00
2005,07,12,04,44,0.00
2005,07,12,04,45,0.00
2005,07,12,04,46,0.00
2005,07,12,04,47,0.00
2005,07,12,04,48,0.00
2005,07,12,04,49,0.00
2005,07,12,04,50,0.00
2005,07,12,04,51,0.00
2005,07,12,04,52,0.00
2005,07,12,04,53,0.00
2005,07,12,04,54,0.00
2005,07,12,04,55,0.00
2005,07,12,04,56,0.00
2005,07,12,04,57,0.00
2005,07,12,04,58,0.00
2005,07,12,04,59,0.00
2005,07,12,05,00,0.00
2005,07,12,05,01,0.00
2005,07,12,05,02,0.00
2005,07,12,05,03,0.00
2005,07,12,05,04,0.00
2005,07,12,05,05,0.00
2005,07,12,05,06,0.00
2005,07,12,05,07,0.00
2005,07,12,05,08,0.00
2005,07,12,05,09,0.00
2005,07,12,05,10,0.00
2005,07,12,05,11,0.00
2005,07,12,05,12,0.00
2005,07,12,05,13,0.00
2005,07,12,05,14,0.00
2005,07,12,05,15,0.00
2005,07,12,05,16,0.00
2005,07,12,05,17,0.00
2005,07,12,05,18,0.00
2005,07,12,05,19,0.00
2005,07,12,05,20,0.00
2005,07,12,05,21,0.00
2005,07,12,05,22,0.00
2005,07,12,05,23,0.00
2005,07,12,05,24,0.00
2005,07,12,05,25,0.00
2005,07,12,05,26,0.00
2005,07,12,05,27,0.00
2005,07,12,05,28,0.00
2005,07,12,05,29,0.00
2005,07,12,05,30,0.00
2005,07,12,05,31,0.00
2005,07,12,05,32,0.00
2005,07,12,05,33,0.00
2005,07,12,05,34,0.00
2005,07,12,05,35,0.00
2005,07,12,05,36,0.00
2005,07,12,05,37,0.00
2005,07,12,05,38,0.00
2005,07,12,05,39,0.00
2005,07,12,05,40,2.70
2005,07,12,05,41,5.00
2005,07,12,05,42,5.00
2005,07,12,05,43,5.00
2005,07,12,05,44,5.00
2005,07,12,05,45,5.00
2005,07,12,05,46,6.20
2005,07,12,05,47,7.00
2005,07,12,05,48,7.00
2005,07,12,05,49,7.00
2005,07,12,05,50,7.50
2005,07,12,05,51,9.00
2005,07,12,05,52,9.00
2005,07,12,05,53,9.00
2005,07,12,05,54,9.10
2005,07,12,05,55,11.00
2005,07,12,05,56,11.00
2005,07,12,05,57,11.00
2005,07,12,05,58,11.60
2005,07,12,05,59,12.00
2005,07,12,06,00,12.00
2005,07,12,06,01,12.40
2005,07,12,06,02,14.00
2005,07,12,06,03,15.00
2005,07,12,06,04,16.00
2005,07,12,06,05,16.00
2005,07,12,06,06,16.20
2005,07,12,06,07,18.00
2005,07,12,06,08,18.00
2005,07,12,06,09,18.50
2005,07,12,06,10,19.00
2005,07,12,06,11,19.00
2005,07,12,06,12,19.00
2005,07,12,06,13,19.00
2005,07,12,06,14,19.00
2005,07,12,06,15,20.10
2005,07,12,06,16,21.00
2005,07,12,06,17,21.00
2005,07,12,06,18,22.90
2005,07,12,06,19,23.50
2005,07,12,06,20,25.00
2005,07,12,06,21,25.00
2005,07,12,06,22,25.00
2005,07,12,06,23,25.90
2005,07,12,06,24,26.00
2005,07,12,06,25,26.00
2005,07,12,06,26,26.00
2005,07,12,06,27,26.00
2005,07,12,06,28,27.40
2005,07,12,06,29,28.00
2005,07,12,06,30,30.00
2005,07,12,06,31,30.60
2005,07,12,06,32,32.00
2005,07,12,06,33,32.00
2005,07,12,06,34,32.00
2005,07,12,06,35,32.00
2005,07,12,06,36,32.00
2005,07,12,06,37,32.00
2005,07,12,06,38,32.00
2005,07,12,06,39,32.00
2005,07,12,06,40,32.00
2005,07,12,06,41,32.90
2005,07,12,06,42,33.00
2005,07,12,06,43,33.70
2005,07,12,06,44,35.00
2005,07,12,06,45,35.00
2005,07,12,06,46,35.00
2005,07,12,06,47,35.10
2005,07,12,06,48,37.00
2005,07,12,06,49,37.00
2005,07,12,06,50,37.00
2005,07,12,06,51,37.00
2005,07,12,06,52,37.00
2005,07,12,06,53,37.10
2005,07,12,06,54,39.00
2005,07,12,06,55,39.00
2005,07,12,06,56,39.50
2005,07,12,06,57,40.00
2005,07,12,06,58,40.00
2005,07,12,06,59,41.90
2005,07,12,07,00,42.00
2005,07,12,07,01,42.00
2005,07,12,07,02,41.00
2005,07,12,07,03,40.00
2005,07,12,07,04,43.30
2005,07,12,07,05,48.10
2005,07,12,07,06,43.50
2005,07,12,07,07,42.00
2005,07,12,07,08,42.00
2005,07,12,07,09,45.50
2005,07,12,07,10,52.20
2005,07,12,07,11,54.00
2005,07,12,07,12,54.00
2005,07,12,07,13,131.70
2005,07,12,07,14,225.00
2005,07,12,07,15,175.70
2005,07,12,07,16,207.80
2005,07,12,07,17,224.20
2005,07,12,07,18,171.00
2005,07,12,07,19,171.00
2005,07,12,07,20,222.40
2005,07,12,07,21,257.20
2005,07,12,07,22,257.10
2005,07,12,07,23,260.00
2005,07,12,07,24,260.00
2005,07,12,07,25,261.00
2005,07,12,07,26,263.20
2005,07,12,07,27,266.20
2005,07,12,07,28,268.90
2005,07,12,07,29,271.20
2005,07,12,07,30,272.70
2005,07,12,07,31,275.00
2005,07,12,07,32,277.30
2005,07,12,07,33,278.80
2005,07,12,07,34,282.80
2005,07,12,07,35,285.80
2005,07,12,07,36,288.80
2005,07,12,07,37,291.00
2005,07,12,07,38,293.30
2005,07,12,07,39,296.40
2005,07,12,07,40,299.20
2005,07,12,07,41,302.00
2005,07,12,07,42,303.70
2005,07,12,07,43,307.00
2005,07,12,07,44,308.70
2005,07,12,07,45,312.40
2005,07,12,07,46,311.70
2005,07,12,07,47,317.10
2005,07,12,07,48,320.90
2005,07,12,07,49,322.60
2005,07,12,07,50,324.40
2005,07,12,07,51,328.30
2005,07,12,07,52,332.30
2005,07,12,07,53,334.00
2005,07,12,07,54,337.00
2005,07,12,07,55,343.30
2005,07,12,07,56,345.00
2005,07,12,07,57,347.80
2005,07,12,07,58,352.50
2005,07,12,07,59,356.20
2005,07,12,08,00,360.40
2005,07,12,08,01,364.50
2005,07,12,08,02,369.70
2005,07,12,08,03,374.00
2005,07,12,08,04,381.30
2005,07,12,08,05,389.10
2005,07,12,08,06,396.20
2005,07,12,08,07,402.10
2005,07,12,08,08,407.10
2005,07,12,08,09,411.00
2005,07,12,08,10,415.00
2005,07,12,08,11,415.00
2005,07,12,08,12,420.70
2005,07,12,08,13,429.40
2005,07,12,08,14,434.90
2005,07,12,08,15,438.30
2005,07,12,08,16,443.50
2005,07,12,08,17,445.00
2005,07,12,08,18,445.00
2005,07,12,08,19,445.70
2005,07,12,08,20,446.00
2005,07,12,08,21,447.90
2005,07,12,08,22,448.00
2005,07,12,08,23,448.00
2005,07,12,08,24,448.00
2005,07,12,08,25,452.40
2005,07,12,08,26,454.00
2005,07,12,08,27,450.30
2005,07,12,08,28,437.10
2005,07,12,08,29,465.70
2005,07,12,08,30,469.60
2005,07,12,08,31,474.50
2005,07,12,08,32,405.20
2005,07,12,08,33,485.00
2005,07,12,08,34,485.00
2005,07,12,08,35,403.30
2005,07,12,08,36,337.80
2005,07,12,08,37,430.00
2005,07,12,08,38,454.00
2005,07,12,08,39,213.60
2005,07,12,08,40,173.30
2005,07,12,08,41,151.00
2005,07,12,08,42,151.00
2005,07,12,08,43,467.80
2005,07,12,08,44,516.50
2005,07,12,08,45,512.00
2005,07,12,08,46,512.00
2005,07,12,08,47,512.00
2005,07,12,08,48,388.40
2005,07,12,08,49,321.40
2005,07,12,08,50,411.30
2005,07,12,08,51,450.00
2005,07,12,08,52,450.00
2005,07,12,08,53,450.00
2005,07,12,08,54,494.10
2005,07,12,08,55,538.00
2005,07,12,08,56,474.40
2005,07,12,08,57,534.80
2005,07,12,08,58,547.00
2005,07,12,08,59,511.50
2005,07,12,09,00,523.00
2005,07,12,09,01,541.80
2005,07,12,09,02,543.10
2005,07,12,09,03,545.70
2005,07,12,09,04,548.00
2005,07,12,09,05,548.00
2005,07,12,09,06,552.30
2005,07,12,09,07,554.90
2005,07,12,09,08,555.80
2005,07,12,09,09,561.80
2005,07,12,09,10,564.00
2005,07,12,09,11,567.40
2005,07,12,09,12,572.10
2005,07,12,09,13,576.30
2005,07,12,09,14,580.70
2005,07,12,09,15,586.10
2005,07,12,09,16,591.00
2005,07,12,09,17,594.00
2005,07,12,09,18,599.10
2005,07,12,09,19,604.50
2005,07,12,09,20,610.50
2005,07,12,09,21,614.90
2005,07,12,09,22,619.00
2005,07,12,09,23,623.20
2005,07,12,09,24,627.50
2005,07,12,09,25,629.00
2005,07,12,09,26,631.80
2005,07,12,09,27,635.90
2005,07,12,09,28,638.00
2005,07,12,09,29,639.30
2005,07,12,09,30,641.60
2005,07,12,09,31,645.00
2005,07,12,09,32,647.50
2005,07,12,09,33,648.30
2005,07,12,09,34,649.40
2005,07,12,09,35,653.20
2005,07,12,09,36,657.90
2005,07,12,09,37,663.10
2005,07,12,09,38,668.70
2005,07,12,09,39,671.00
2005,07,12,09,40,671.00
2005,07,12,09,41,671.00
2005,07,12,09,42,676.00
2005,07,12,09,43,680.20
2005,07,12,09,44,684.50
2005,07,12,09,45,687.20
2005,07,12,09,46,688.00
2005,07,12,09,47,691.80
2005,07,12,09,48,695.70
2005,07,12,09,49,696.50
2005,07,12,09,50,700.80
2005,07,12,09,51,704.60
2005,07,12,09,52,707.60
2005,07,12,09,53,709.40
2005,07,12,09,54,713.50
2005,07,12,09,55,715.00
2005,07,12,09,56,716.80
2005,07,12,09,57,721.00
2005,07,12,09,58,721.60
2005,07,12,09,59,721.30
2005,07,12,10,00,723.60
2005,07,12,10,01,724.30
2005,07,12,10,02,726.90
2005,07,12,10,03,729.90
2005,07,12,10,04,734.50
2005,07,12,10,05,739.30
2005,07,12,10,06,743.80
2005,07,12,10,07,747.90
2005,07,12,10,08,754.10
2005,07,12,10,09,761.10
2005,07,12,10,10,765.00
2005,07,12,10,11,771.40
2005,07,12,10,12,778.50
2005,07,12,10,13,781.20
2005,07,12,10,14,787.80
2005,07,12,10,15,793.40
2005,07,12,10,16,798.50
2005,07,12,10,17,800.00
2005,07,12,10,18,819.40
2005,07,12,10,19,836.60
2005,07,12,10,20,849.00
2005,07,12,10,21,849.00
2005,07,12,10,22,849.00
2005,07,12,10,23,849.00
2005,07,12,10,24,844.70
2005,07,12,10,25,800.00
2005,07,12,10,26,716.70
2005,07,12,10,27,533.40
2005,07,12,10,28,564.70
2005,07,12,10,29,663.00
2005,07,12,10,30,629.20
2005,07,12,10,31,639.00
2005,07,12,10,32,687.00
2005,07,12,10,33,706.20
2005,07,12,10,34,687.60
2005,07,12,10,35,752.20
2005,07,12,10,36,749.30
2005,07,12,10,37,631.00
2005,07,12,10,38,568.70
2005,07,12,10,39,491.20
2005,07,12,10,40,489.00
2005,07,12,10,41,489.00
2005,07,12,10,42,500.80
2005,07,12,10,43,420.00
2005,07,12,10,44,420.00
2005,07,12,10,45,693.60
2005,07,12,10,46,899.60
2005,07,12,10,47,898.20
2005,07,12,10,48,906.40
2005,07,12,10,49,925.30
2005,07,12,10,50,952.60
2005,07,12,10,51,988.40
2005,07,12,10,52,974.80
2005,07,12,10,53,888.90
2005,07,12,10,54,870.00
2005,07,12,10,55,757.00
2005,07,12,10,56,524.70
2005,07,12,10,57,497.80
2005,07,12,10,58,490.10
2005,07,12,10,59,483.90
2005,07,12,11,00,490.70
2005,07,12,11,01,506.10
2005,07,12,11,02,538.70
2005,07,12,11,03,565.60
2005,07,12,11,04,588.30
2005,07,12,11,05,593.70
2005,07,12,11,06,593.50
2005,07,12,11,07,600.90
2005,07,12,11,08,628.40
2005,07,12,11,09,649.00
2005,07,12,11,10,649.00
2005,07,12,11,11,649.00
2005,07,12,11,12,649.00
2005,07,12,11,13,649.00
2005,07,12,11,14,649.00
2005,07,12,11,15,649.00
2005,07,12,11,16,649.00
2005,07,12,11,17,649.00
2005,07,12,11,18,744.70
2005,07,12,11,19,1004.60
2005,07,12,11,20,979.10
2005,07,12,11,21,958.20
2005,07,12,11,22,943.60
2005,07,12,11,23,931.60
2005,07,12,11,24,922.00
2005,07,12,11,25,913.80
2005,07,12,11,26,908.50
2005,07,12,11,27,905.50
2005,07,12,11,28,902.30
2005,07,12,11,29,900.00
2005,07,12,11,30,900.00
2005,07,12,11,31,899.10
2005,07,12,11,32,899.30
2005,07,12,11,33,900.00
2005,07,12,11,34,900.00
2005,07,12,11,35,901.20
2005,07,12,11,36,907.50
2005,07,12,11,37,919.00
2005,07,12,11,38,884.60
2005,07,12,11,39,858.00
2005,07,12,11,40,749.90
2005,07,12,11,41,813.70
2005,07,12,11,42,752.60
2005,07,12,11,43,679.80
2005,07,12,11,44,674.60
2005,07,12,11,45,701.40
2005,07,12,11,46,641.00
2005,07,12,11,47,638.00
2005,07,12,11,48,638.00
2005,07,12,11,49,638.00
2005,07,12,11,50,638.00
2005,07,12,11,51,691.20
2005,07,12,11,52,745.10
2005,07,12,11,53,690.00
2005,07,12,11,54,529.00
2005,07,12,11,55,495.50
2005,07,12,11,56,509.80
2005,07,12,11,57,572.00
2005,07,12,11,58,615.30
2005,07,12,11,59,685.10
2005,07,12,12,00,650.10
2005,07,12,12,01,631.00
2005,07,12,12,02,631.00
2005,07,12,12,03,631.00
2005,07,12,12,04,625.90
2005,07,12,12,05,628.70
2005,07,12,12,06,696.70
2005,07,12,12,07,697.00
2005,07,12,12,08,737.00
2005,07,12,12,09,754.00
2005,07,12,12,10,754.00
2005,07,12,12,11,754.00
2005,07,12,12,12,754.00
2005,07,12,12,13,705.90
2005,07,12,12,14,675.00
2005,07,12,12,15,668.80
2005,07,12,12,16,541.80
2005,07,12,12,17,562.30
2005,07,12,12,18,581.10
2005,07,12,12,19,587.30
2005,07,12,12,20,613.70
2005,07,12,12,21,608.60
2005,07,12,12,22,655.50
2005,07,12,12,23,647.10
2005,07,12,12,24,654.90
2005,07,12,12,25,686.20
2005,07,12,12,26,683.70
2005,07,12,12,27,684.00
2005,07,12,12,28,662.40
2005,07,12,12,29,607.00
2005,07,12,12,30,622.40
2005,07,12,12,31,601.20
2005,07,12,12,32,629.00
2005,07,12,12,33,613.20
2005,07,12,12,34,628.00
2005,07,12,12,35,730.90
2005,07,12,12,36,779.00
2005,07,12,12,37,868.00
2005,07,12,12,38,907.00
2005,07,12,12,39,907.00
2005,07,12,12,40,907.00
2005,07,12,12,41,907.00
2005,07,12,12,42,733.30
2005,07,12,12,43,612.30
2005,07,12,12,44,629.30
2005,07,12,12,45,631.00
2005,07,12,12,46,624.00
2005,07,12,12,47,614.20
2005,07,12,12,48,634.40
2005,07,12,12,49,644.20
2005,07,12,12,50,645.00
2005,07,12,12,51,645.00
2005,07,12,12,52,645.00
2005,07,12,12,53,628.30
2005,07,12,12,54,627.80
2005,07,12,12,55,638.00
2005,07,12,12,56,699.50
2005,07,12,12,57,628.00
2005,07,12,12,58,654.40
2005,07,12,12,59,596.10
2005,07,12,13,00,594.80
2005,07,12,13,01,600.60
2005,07,12,13,02,631.60
2005,07,12,13,03,646.90
2005,07,12,13,04,731.10
2005,07,12,13,05,793.00
2005,07,12,13,06,793.00
2005,07,12,13,07,793.00
2005,07,12,13,08,799.30
2005,07,12,13,09,865.00
2005,07,12,13,10,865.00
2005,07,12,13,11,865.00
2005,07,12,13,12,865.00
2005,07,12,13,13,1213.60
2005,07,12,13,14,1235.80
2005,07,12,13,15,877.00
2005,07,12,13,16,877.00
2005,07,12,13,17,877.00
2005,07,12,13,18,877.00
2005,07,12,13,19,877.00
2005,07,12,13,20,877.00
2005,07,12,13,21,915.70
2005,07,12,13,22,1004.00
2005,07,12,13,23,1004.00
2005,07,12,13,24,1004.00
2005,07,12,13,25,1145.70
2005,07,12,13,26,1167.00
2005,07,12,13,27,1167.00
2005,07,12,13,28,1048.80
2005,07,12,13,29,933.00
2005,07,12,13,30,951.00
2005,07,12,13,31,951.00
2005,07,12,13,32,951.00
2005,07,12,13,33,951.00
2005,07,12,13,34,980.00
2005,07,12,13,35,1009.00
2005,07,12,13,36,890.80
2005,07,12,13,37,911.20
2005,07,12,13,38,949.00
2005,07,12,13,39,949.00
2005,07,12,13,40,949.00
2005,07,12,13,41,871.40
2005,07,12,13,42,775.10
2005,07,12,13,43,735.20
2005,07,12,13,44,744.60
2005,07,12,13,45,755.50
2005,07,12,13,46,758.20
2005,07,12,13,47,800.00
2005,07,12,13,48,800.00
2005,07,12,13,49,798.40
2005,07,12,13,50,782.00
2005,07,12,13,51,782.00
2005,07,12,13,52,775.20
2005,07,12,13,53,770.00
2005,07,12,13,54,665.50
2005,07,12,13,55,611.10
2005,07,12,13,56,583.00
2005,07,12,13,57,633.00
2005,07,12,13,58,633.00
2005,07,12,13,59,803.90
2005,07,12,14,00,868.00
2005,07,12,14,01,696.00
2005,07,12,14,02,711.70
2005,07,12,14,03,739.80
2005,07,12,14,04,744.10
2005,07,12,14,05,738.80
2005,07,12,14,06,692.10
2005,07,12,14,07,758.30
2005,07,12,14,08,718.50
2005,07,12,14,09,773.00
2005,07,12,14,10,765.70
2005,07,12,14,11,749.20
2005,07,12,14,12,696.40
2005,07,12,14,13,749.00
2005,07,12,14,14,732.00
2005,07,12,14,15,696.80
2005,07,12,14,16,718.10
2005,07,12,14,17,719.70
2005,07,12,14,18,738.20
2005,07,12,14,19,697.70
2005,07,12,14,20,574.20
2005,07,12,14,21,576.00
2005,07,12,14,22,537.10
2005,07,12,14,23,531.70
2005,07,12,14,24,546.30
2005,07,12,14,25,554.20
2005,07,12,14,26,568.40
2005,07,12,14,27,567.30
2005,07,12,14,28,579.80
2005,07,12,14,29,588.00
2005,07,12,14,30,600.80
2005,07,12,14,31,592.30
2005,07,12,14,32,609.40
2005,07,12,14,33,603.00
2005,07,12,14,34,603.00
2005,07,12,14,35,603.00
2005,07,12,14,36,665.50
2005,07,12,14,37,648.40
2005,07,12,14,38,617.80
2005,07,12,14,39,616.00
2005,07,12,14,40,626.00
2005,07,12,14,41,626.00
2005,07,12,14,42,1100.00
2005,07,12,14,43,970.00
2005,07,12,14,44,678.90
2005,07,12,14,45,707.50
2005,07,12,14,46,724.00
2005,07,12,14,47,612.20
2005,07,12,14,48,599.00
2005,07,12,14,49,655.00
2005,07,12,14,50,732.40
2005,07,12,14,51,702.10
2005,07,12,14,52,685.00
2005,07,12,14,53,677.00
2005,07,12,14,54,684.30
2005,07,12,14,55,717.00
2005,07,12,14,56,1044.10
2005,07,12,14,57,1401.00
2005,07,12,14,58,1401.00
2005,07,12,14,59,1401.00
2005,07,12,15,00,1297.70
2005,07,12,15,01,807.00
2005,07,12,15,02,716.50
2005,07,12,15,03,599.40
2005,07,12,15,04,556.70
2005,07,12,15,05,544.80
2005,07,12,15,06,554.10
2005,07,12,15,07,545.00
2005,07,12,15,08,545.00
2005,07,12,15,09,553.20
2005,07,12,15,10,543.10
2005,07,12,15,11,532.60
2005,07,12,15,12,509.50
2005,07,12,15,13,491.10
2005,07,12,15,14,484.40
2005,07,12,15,15,477.90
2005,07,12,15,16,476.00
2005,07,12,15,17,482.00
2005,07,12,15,18,478.00
2005,07,12,15,19,465.00
2005,07,12,15,20,455.90
2005,07,12,15,21,445.70
2005,07,12,15,22,444.70
2005,07,12,15,23,439.30
2005,07,12,15,24,440.40
2005,07,12,15,25,436.00
2005,07,12,15,26,426.20
2005,07,12,15,27,416.60
2005,07,12,15,28,413.30
2005,07,12,15,29,413.70
2005,07,12,15,30,417.30
2005,07,12,15,31,418.90
2005,07,12,15,32,418.70
2005,07,12,15,33,417.30
2005,07,12,15,34,417.10
2005,07,12,15,35,420.80
2005,07,12,15,36,425.00
2005,07,12,15,37,429.00
2005,07,12,15,38,431.00
2005,07,12,15,39,431.80
2005,07,12,15,40,434.10
2005,07,12,15,41,438.70
2005,07,12,15,42,442.80
2005,07,12,15,43,439.50
2005,07,12,15,44,429.00
2005,07,12,15,45,424.60
2005,07,12,15,46,423.50
2005,07,12,15,47,416.40
2005,07,12,15,48,408.00
2005,07,12,15,49,403.00
2005,07,12,15,50,403.00
2005,07,12,15,51,403.00
2005,07,12,15,52,403.00
2005,07,12,15,53,400.70
2005,07,12,15,54,394.80
2005,07,12,15,55,396.00
2005,07,12,15,56,401.50
2005,07,12,15,57,409.70
2005,07,12,15,58,420.80
2005,07,12,15,59,432.80
2005,07,12,16,00,447.80
2005,07,12,16,01,454.00
2005,07,12,16,02,454.70
2005,07,12,16,03,452.50
2005,07,12,16,04,448.30
2005,07,12,16,05,448.90
2005,07,12,16,06,436.40
2005,07,12,16,07,411.80
2005,07,12,16,08,400.20
2005,07,12,16,09,397.30
2005,07,12,16,10,404.30
2005,07,12,16,11,406.60
2005,07,12,16,12,412.10
2005,07,12,16,13,418.80
2005,07,12,16,14,425.40
2005,07,12,16,15,444.00
2005,07,12,16,16,462.00
2005,07,12,16,17,485.90
2005,07,12,16,18,475.30
2005,07,12,16,19,432.20
2005,07,12,16,20,394.30
2005,07,12,16,21,359.90
2005,07,12,16,22,346.30
2005,07,12,16,23,339.20
2005,07,12,16,24,336.00
2005,07,12,16,25,337.30
2005,07,12,16,26,338.00
2005,07,12,16,27,337.30
2005,07,12,16,28,329.80
2005,07,12,16,29,329.00
2005,07,12,16,30,331.60
2005,07,12,16,31,337.30
2005,07,12,16,32,348.00
2005,07,12,16,33,358.90
2005,07,12,16,34,361.20
2005,07,12,16,35,356.30
2005,07,12,16,36,347.10
2005,07,12,16,37,333.30
2005,07,12,16,38,317.10
2005,07,12,16,39,315.00
2005,07,12,16,40,308.00
2005,07,12,16,41,288.90
2005,07,12,16,42,292.30
2005,07,12,16,43,297.50
2005,07,12,16,44,300.70
2005,07,12,16,45,294.10
2005,07,12,16,46,286.40
2005,07,12,16,47,278.90
2005,07,12,16,48,272.20
2005,07,12,16,49,268.00
2005,07,12,16,50,267.00
2005,07,12,16,51,267.00
2005,07,12,16,52,270.70
2005,07,12,16,53,278.00
2005,07,12,16,54,278.00
2005,07,12,16,55,272.80
2005,07,12,16,56,264.40
2005,07,12,16,57,257.50
2005,07,12,16,58,254.40
2005,07,12,16,59,255.40
2005,07,12,17,00,258.00
2005,07,12,17,01,263.70
2005,07,12,17,02,273.40
2005,07,12,17,03,279.00
2005,07,12,17,04,278.60
2005,07,12,17,05,278.00
2005,07,12,17,06,278.70
2005,07,12,17,07,282.10
2005,07,12,17,08,286.80